Terminal Aerodrome Forecast
Issued by NWS

Current Version | Previous Version | Text Only | Print | Product List | Glossary Off
Versions: 1 2 3 4 5 6 7 8 9 10 11 12 13 14 15 16

000
FTUS41 KPBZ 181700
TAFHLG
TAF
KHLG 181730Z 1818/1918 25008KT P6SM OVC018
     FM190200 27008KT 4SM -SN OVC010
     FM190900 27008KT P6SM OVC015=

USA.gov is the U.S. government's official web portal to all federal, state and local government web resources and services.